DW2659 Weather Reports


time (UTC)temp
C
wind
direction
speed
KPH
gust
KPH
rain 1hr
cm
rain 24hr
cm
rain mn
cm
humidity
%
barometer
mb
20260904223904 35 115 0.0 1.6 0.00 0.00 0.00 52 1013.3
20260904223403 36 115 0.0 1.6 0.00 0.00 0.00 52 1013.3
20260904222403 36 115 1.6 1.6 0.00 0.00 0.00 51 1013.3
20260904221903 37 115 0.0 1.6 0.00 0.00 0.00 47 1013.3
20260904221405 38 115 0.0 1.6 0.00 0.00 0.00 47 1013.2
20260904220904 38 115 0.0 1.6 0.00 0.00 0.00 46 1013.2
20260904220403 38 115 1.6 1.6 0.00 0.00 0.00 46 1013.2
20260904215905 38 115 0.0 1.6 0.00 0.00 0.00 44 1013.2
20260904215403 38 115 0.0 4.8 0.00 0.00 0.00 44 1013.2
20260904214404 38 281 0.0 1.6 0.00 0.00 0.00 46 1013.4
20260904213904 38 281 0.0 1.6 0.00 0.00 0.00 45 1013.4
20260904212905 38 281 1.6 3.2 0.00 0.00 0.00 46 1013.4
20260904212404 38 281 1.6 3.2 0.00 0.00 0.00 48 1013.7
20260904211904 38 281 0.0 3.2 0.00 0.00 0.00 47 1013.7
20260904211405 38 281 1.6 3.2 0.00 0.00 0.00 45 1013.8
20260904210904 38 281 1.6 3.2 0.00 0.00 0.00 42 1013.8
20260904210404 38 266 1.6 4.8 0.00 0.00 0.00 44 1013.8
20260904205904 38 136 1.6 1.6 0.00 0.00 0.00 45 1013.8
20260904205404 38 136 1.6 3.2 0.00 0.00 0.00 45 1013.8
20260904204404 38 136 0.0 3.2 0.00 0.00 0.00 46 1013.9
20260904203904 38 136 0.0 1.6 0.00 0.00 0.00 46 1013.9
20260904203403 38 136 1.6 3.2 0.00 0.00 0.00 46 1013.9
20260904202904 38 132 0.0 3.2 0.00 0.00 0.00 46 1014.6
20260904202404 38 22 1.6 3.2 0.00 0.00 0.00 46 1014.6
20260904201903 37 22 1.6 3.2 0.00 0.00 0.00 47 1014.6
20260904201405 37 22 1.6 4.8 0.00 0.00 0.00 48 1014.6
20260904200904 37 331 0.0 3.2 0.00 0.00 0.00 48 1014.6
20260904200404 37 319 1.6 3.2 0.00 0.00 0.00 47 1014.6
20260904195905 37 345 1.6 3.2 0.00 0.00 0.00 46 1014.6
20260904195404 37 299 1.6 3.2 0.00 0.00 0.00 46 1014.6
20260904194904 37 179 4.8 9.7 0.00 0.00 0.00 44 1014.6
20260904194404 37 211 3.2 9.7 0.00 0.00 0.00 46 1014.8
20260904193904 37 260 1.6 4.8 0.00 0.00 0.00 46 1014.8
20260904192404 36 55 0.0 1.6 0.00 0.00 0.00 48 1015.5
20260904191903 36 55 1.6 4.8 0.00 0.00 0.00 48 1015.5
20260904191405 35 12 1.6 3.2 0.00 0.00 0.00 55 1015.5
20260904190904 35 12 0.0 1.6 0.00 0.00 0.00 54 1015.5
20260904190403 36 12 0.0 3.2 0.00 0.00 0.00 51 1015.5
20260904185905 36 12 1.6 3.2 0.00 0.00 0.00 50 1015.6
20260904185404 36 16 3.2 4.8 0.00 0.00 0.00 48 1015.6
20260904184904 36 25 1.6 4.8 0.00 0.00 0.00 50 1015.6
20260904184404 36 29 0.0 3.2 0.00 0.00 0.00 51 1015.9
20260904183404 36 26 3.2 4.8 0.00 0.00 0.00 49 1015.9
20260904182905 36 26 3.2 4.8 0.00 0.00 0.00 50 1016.2
20260904182404 36 10 3.2 4.8 0.00 0.00 0.00 49 1016.2
20260904181903 36 18 3.2 4.8 0.00 0.00 0.00 50 1016.2
20260904181403 35 26 3.2 8.0 0.00 0.00 0.00 52 1016.2
20260904180905 36 62 4.8 4.8 0.00 0.00 0.00 49 1016.2
20260904180404 36 121 3.2 4.8 0.00 0.00 0.00 49 1016.2
20260904175405 36 122 4.8 11.3 0.00 0.00 0.00 50 1016.7
20260904174403 35 346 1.6 3.2 0.00 0.00 0.00 51 1016.7
20260904173905 35 277 1.6 4.8 0.00 0.00 0.00 51 1016.7
20260904173404 35 189 3.2 4.8 0.00 0.00 0.00 50 1016.7
20260904172904 35 220 3.2 4.8 0.00 0.00 0.00 49 1016.7
20260904172405 35 120 4.8 8.0 0.00 0.00 0.00 49 1016.7
20260904171904 35 51 3.2 4.8 0.00 0.00 0.00 51 1016.7
20260904171404 35 53 3.2 4.8 0.00 0.00 0.00 52 1016.8
20260904170905 35 23 1.6 8.0 0.00 0.00 0.00 51 1017.1
20260904170403 35 74 1.6 4.8 0.00 0.00 0.00 52 1017.1
20260904165904 35 355 1.6 4.8 0.00 0.00 0.00 54 1017.2
20260904164904 35 358 3.2 4.8 0.00 0.00 0.00 54 1017.2
20260904163905 34 355 3.2 4.8 0.00 0.00 0.00 54 1017.3
20260904163404 34 23 1.6 4.8 0.00 0.00 0.00 55 1017.3
20260904162904 34 13 1.6 8.0 0.00 0.00 0.00 55 1017.5
20260904162404 34 256 4.8 8.0 0.00 0.00 0.00 53 1017.5
20260904161904 34 10 3.2 4.8 0.00 0.00 0.00 56 1017.5
20260904161402 34 119 3.2 4.8 0.00 0.00 0.00 54 1017.5
20260904160903 33 68 1.6 4.8 0.00 0.00 0.00 58 1017.5
20260904160402 33 153 3.2 4.8 0.00 0.00 0.00 56 1017.5
20260904155903 33 87 3.2 4.8 0.00 0.00 0.00 54 1017.6
20260904155404 33 97 3.2 4.8 0.00 0.00 0.00 55 1017.6
20260904154902 33 355 1.6 4.8 0.00 0.00 0.00 55 1017.6
20260904154402 32 259 3.2 4.8 0.00 0.00 0.00 57 1017.6
20260904153402 32 103 4.8 9.7 0.00 0.00 0.00 57 1017.6
20260904151902 31 44 1.6 4.8 0.00 0.00 0.00 64 1017.7
20260904150403 31 97 6.4 11.3 0.00 0.00 0.00 62 1017.5
20260904145902 31 249 4.8 9.7 0.00 0.00 0.00 61 1017.4
20260904145403 31 249 1.6 3.2 0.00 0.00 0.00 63 1017.4
20260904144903 31 131 6.4 9.7 0.00 0.00 0.00 63 1017.4
20260904144402 31 105 4.8 8.0 0.00 0.00 0.00 63 1017.4
20260904143904 31 180 4.8 9.7 0.00 0.00 0.00 64 1017.4
20260904143403 31 115 3.2 8.0 0.00 0.00 0.00 64 1017.4
20260904142902 31 129 4.8 9.7 0.00 0.00 0.00 64 1017.5
20260904142402 30 134 6.4 9.7 0.00 0.00 0.00 64 1017.5
20260904141903 30 113 4.8 9.7 0.00 0.00 0.00 66 1017.5
20260904141402 30 130 6.4 9.7 0.00 0.00 0.00 65 1017.3
20260904140404 30 210 6.4 8.0 0.00 0.00 0.00 64 1017.3
20260904135903 30 144 3.2 8.0 0.00 0.00 0.00 67 1017.5
20260904134904 30 136 3.2 9.7 0.00 0.00 0.00 68 1017.3
20260904134402 29 180 3.2 8.0 0.00 0.00 0.00 68 1017.5
20260904133903 29 125 3.2 9.7 0.00 0.00 0.00 70 1017.5
20260904133404 28 120 3.2 8.0 0.00 0.00 0.00 71 1017.5
20260904132902 28 184 4.8 9.7 0.00 0.00 0.00 71 1017.4
20260904132402 28 141 1.6 8.0 0.00 0.00 0.00 74 1017.4
20260904131904 27 140 1.6 8.0 0.00 0.00 0.00 75 1017.4
20260904131402 27 163 4.8 8.0 0.00 0.00 0.00 78 1017.6
20260904130902 26 226 1.6 8.0 0.00 0.00 0.00 81 1017.6
20260904130404 26 230 4.8 8.0 0.00 0.00 0.00 81 1017.6
20260904125902 25 168 1.6 4.8 0.00 0.00 0.00 85 1017.4
20260904125402 25 205 0.0 3.2 0.00 0.00 0.00 87 1017.4
20260904124904 25 196 3.2 4.8 0.00 0.00 0.00 88 1017.4
20260904124402 24 240 3.2 4.8 0.00 0.00 0.00 91 1017.4
20260904123404 23 355 1.6 1.6 0.00 0.00 0.00 94 1017.2
20260904122903 23 355 0.0 1.6 0.00 0.00 0.00 94 1017.2
20260904121904 23 355 0.0 0.0 0.00 0.00 0.00 93 1017.2
20260904120903 22 355 0.0 0.0 0.00 0.00 0.00 93 1017.3
20260904120404 22 355 0.0 0.0 0.00 0.00 0.00 93 1017.3
20260904115402 22 355 0.0 0.0 0.00 0.00 0.00 93 1017.1
20260904114403 22 355 0.0 0.0 0.00 0.00 0.00 93 1017.0
20260904113903 22 355 0.0 0.0 0.00 0.00 0.00 93 1017.0
20260904113404 22 355 0.0 0.0 0.00 0.00 0.00 93 1017.0
20260904112903 22 355 0.0 0.0 0.00 0.00 0.00 93 1017.0
20260904112403 22 355 0.0 0.0 0.00 0.00 0.00 92 1016.8
20260904111904 22 355 0.0 0.0 0.00 0.00 0.00 92 1016.8
20260904111403 22 355 0.0 0.0 0.00 0.00 0.00 92 1016.8
20260904110903 22 355 0.0 0.0 0.00 0.00 0.00 92 1016.5
20260904105904 22 355 0.0 0.0 0.00 0.00 0.00 92 1016.5
20260904105402 22 355 0.0 0.0 0.00 0.00 0.00 92 1016.5
20260904104903 22 355 0.0 0.0 0.00 0.00 0.00 92 1016.5
20260904104404 22 355 0.0 0.0 0.00 0.00 0.00 92 1016.5
20260904103403 22 355 0.0 0.0 0.00 0.00 0.00 92 1016.4
20260904101902 22 355 0.0 0.0 0.00 0.00 0.00 92 1016.3
20260904101404 22 355 0.0 0.0 0.00 0.00 0.00 92 1016.4
20260904100903 22 355 0.0 0.0 0.00 0.00 0.00 92 1016.4
20260904100402 22 355 0.0 0.0 0.00 0.00 0.00 92 1016.4
20260904095904 22 355 0.0 0.0 0.00 0.00 0.00 92 1016.2
20260904095402 22 355 0.0 0.0 0.00 0.00 0.00 92 1016.2
20260904094902 23 355 0.0 0.0 0.00 0.00 0.00 92 1016.2
20260904094404 23 355 0.0 0.0 0.00 0.00 0.00 92 1016.0
20260904093902 23 355 0.0 0.0 0.00 0.00 0.00 92 1016.0
20260904093403 23 355 0.0 0.0 0.00 0.00 0.00 92 1016.0
20260904092902 23 355 0.0 0.0 0.00 0.00 0.00 92 1016.0
20260904092404 23 355 0.0 0.0 0.00 0.00 0.00 92 1016.0
20260904091902 23 355 0.0 0.0 0.00 0.00 0.00 92 1016.0
20260904091402 23 355 0.0 0.0 0.00 0.00 0.00 92 1016.0
20260904090905 23 355 0.0 0.0 0.00 0.00 0.00 92 1016.0
20260904090403 23 355 0.0 0.0 0.00 0.00 0.00 91 1016.0
20260904085903 23 355 0.0 0.0 0.00 0.00 0.00 91 1015.8
20260904085404 23 355 0.0 0.0 0.00 0.00 0.00 92 1015.8
20260904084903 23 355 0.0 0.0 0.00 0.00 0.00 91 1015.8
20260904083904 23 355 0.0 0.0 0.00 0.00 0.00 91 1015.9
20260904083403 23 355 0.0 0.0 0.00 0.00 0.00 91 1015.9
20260904082903 23 355 0.0 0.0 0.00 0.00 0.00 91 1015.9
20260904082404 23 355 0.0 0.0 0.00 0.00 0.00 91 1015.9
20260904081903 23 355 0.0 1.6 0.00 0.00 0.00 92 1015.9
20260904081403 23 355 0.0 1.6 0.00 0.00 0.00 91 1015.8
20260904080403 23 355 1.6 3.2 0.00 0.00 0.00 91 1015.8
20260904075404 23 355 0.0 1.6 0.00 0.00 0.00 91 1015.7
20260904074903 23 355 0.0 1.6 0.00 0.00 0.00 90 1015.7
20260904073403 23 355 0.0 1.6 0.00 0.00 0.00 90 1015.7
20260904072902 23 355 0.0 0.0 0.00 0.00 0.00 90 1015.7
20260904071903 23 355 0.0 0.0 0.00 0.00 0.00 90 1015.6
20260904071403 23 355 0.0 0.0 0.00 0.00 0.00 90 1015.6
20260904070903 23 355 0.0 0.0 0.00 0.00 0.00 90 1015.6
20260904070404 23 355 0.0 0.0 0.00 0.00 0.00 90 1015.6
20260904065903 23 355 0.0 1.6 0.00 0.00 0.00 90 1015.6
20260904065402 23 355 1.6 3.2 0.00 0.00 0.00 90 1015.6
20260904064904 23 355 0.0 0.0 0.00 0.00 0.00 89 1015.6
20260904064403 23 355 0.0 0.0 0.00 0.00 0.00 89 1015.7
20260904063404 23 355 0.0 1.6 0.00 0.00 0.00 89 1015.7
20260904062902 23 355 0.0 0.0 0.00 0.00 0.00 89 1015.8
20260904062403 23 355 0.0 1.6 0.00 0.00 0.00 89 1015.8
20260904061403 23 355 0.0 1.6 0.00 0.00 0.00 89 1015.9
20260904060405 23 355 0.0 0.0 0.00 0.00 0.00 89 1015.9
20260904055903 23 355 0.0 0.0 0.00 0.00 0.00 89 1016.1
20260904055403 23 355 0.0 0.0 0.00 0.00 0.00 88 1016.1
20260904054905 23 355 0.0 0.0 0.00 0.00 0.00 88 1016.1
20260904054403 23 355 0.0 0.0 0.00 0.00 0.00 88 1016.1
20260904053902 23 355 0.0 0.0 0.00 0.00 0.00 88 1016.1
20260904053404 23 355 0.0 0.0 0.00 0.00 0.00 88 1016.1
20260904052903 23 355 0.0 0.0 0.00 0.00 0.00 88 1016.1
20260904052403 23 355 0.0 0.0 0.00 0.00 0.00 88 1016.1
20260904051904 24 355 0.0 1.6 0.00 0.00 0.00 88 1016.1
20260904051403 24 355 0.0 1.6 0.00 0.00 0.00 88 1016.1
20260904050903 24 355 1.6 1.6 0.00 0.00 0.00 88 1016.1
20260904050404 24 355 0.0 1.6 0.00 0.00 0.00 88 1016.1
20260904045903 24 355 1.6 3.2 0.00 0.00 0.00 88 1016.2
20260904045403 24 355 1.6 3.2 0.00 0.00 0.00 88 1016.2
20260904044905 24 355 1.6 1.6 0.00 0.00 0.00 87 1016.2
20260904044403 24 355 0.0 1.6 0.00 0.00 0.00 87 1016.3
20260904043405 24 355 1.6 1.6 0.00 0.00 0.00 87 1016.3
20260904042903 24 355 0.0 1.6 0.00 0.00 0.00 86 1016.5
20260904042403 24 355 0.0 0.0 0.00 0.00 0.00 86 1016.5
20260904041403 24 355 0.0 1.6 0.00 0.00 0.00 86 1016.5
20260904040903 24 355 0.0 0.0 0.00 0.00 0.00 85 1016.5
20260904040404 24 355 0.0 0.0 0.00 0.00 0.00 86 1016.5
20260904035903 24 355 0.0 0.0 0.00 0.00 0.00 86 1016.5
20260904034403 25 355 0.0 0.0 0.00 0.00 0.00 85 1016.6
20260904032903 25 355 0.0 1.6 0.00 0.00 0.00 85 1016.6
20260904032403 25 355 1.6 3.2 0.00 0.00 0.00 84 1016.6
20260904030903 25 355 0.0 1.6 0.00 0.00 0.00 84 1016.8
20260904030404 25 355 1.6 1.6 0.00 0.00 0.00 83 1016.8
20260904025903 25 355 0.0 1.6 0.00 0.00 0.00 83 1016.8
20260904025403 25 355 0.0 1.6 0.00 0.00 0.00 82 1016.8
20260904024904 25 355 0.0 1.6 0.00 0.00 0.00 82 1016.8
20260904024403 25 355 0.0 3.2 0.00 0.00 0.00 82 1016.8
20260904023405 25 355 1.6 3.2 0.00 0.00 0.00 81 1016.8
20260904022903 25 355 0.0 1.6 0.00 0.00 0.00 81 1016.5
20260904022403 25 355 0.0 0.0 0.00 0.00 0.00 81 1016.3
20260904021904 25 355 0.0 0.0 0.00 0.00 0.00 81 1016.3
20260904021403 25 355 0.0 1.6 0.00 0.00 0.00 81 1016.1
20260904020903 25 355 1.6 3.2 0.00 0.00 0.00 81 1016.1
20260904015903 25 355 0.0 0.0 0.00 0.00 0.00 79 1016.1
20260904015403 26 355 0.0 0.0 0.00 0.00 0.00 78 1016.1
20260904014905 26 355 0.0 0.0 0.00 0.00 0.00 78 1016.1
20260904014403 26 355 0.0 0.0 0.00 0.00 0.00 78 1015.9
20260904013903 26 355 0.0 0.0 0.00 0.00 0.00 77 1015.9
20260904013404 26 355 0.0 0.0 0.00 0.00 0.00 78 1015.9
20260904012903 26 355 0.0 0.0 0.00 0.00 0.00 77 1015.7
20260904012403 26 355 0.0 0.0 0.00 0.00 0.00 76 1015.7
20260904011904 26 355 0.0 0.0 0.00 0.00 0.00 76 1015.7
20260904011403 26 355 0.0 1.6 0.00 0.00 0.00 76 1015.7
20260904010903 26 355 0.0 0.0 0.00 0.00 0.00 75 1015.7
20260904010405 26 355 0.0 0.0 0.00 0.00 0.00 75 1015.7
20260904005904 26 355 0.0 0.0 0.00 0.00 0.00 74 1015.2
20260904005403 26 355 0.0 0.0 0.00 0.00 0.00 74 1015.2
20260904004905 26 355 0.0 0.0 0.00 0.00 0.00 74 1015.2
20260904004403 27 355 1.6 1.6 0.00 0.00 0.00 73 1014.9
20260904003904 27 355 0.0 1.6 0.00 0.00 0.00 73 1014.9
20260904002903 27 355 0.0 1.6 0.00 0.00 0.00 73 1014.9
20260904002403 27 355 0.0 1.6 0.00 0.00 0.00 73 1014.9
20260904001904 27 281 0.0 3.2 0.00 0.00 0.00 72 1014.9
20260904000903 28 245 0.0 1.6 0.00 0.00 0.00 71 1014.8
20260903235903 28 245 0.0 0.0 0.00 0.00 0.00 70 1014.5
20260903235403 28 245 0.0 0.0 0.00 0.00 0.00 70 1014.5
20260903233903 28 245 0.0 0.0 0.00 0.00 0.00 69 1014.5
20260903233405 28 245 0.0 0.0 0.00 0.00 0.00 68 1014.5
20260903232904 29 245 0.0 0.0 0.00 0.00 0.00 68 1014.5
20260903232403 29 245 0.0 0.0 0.00 0.00 0.00 69 1014.5
20260903231905 29 245 0.0 0.0 0.00 0.00 0.00 68 1014.5
20260903230903 29 245 0.0 0.0 0.00 0.00 0.00 68 1014.6
20260903230405 29 245 0.0 0.0 0.00 0.00 0.00 68 1014.6
20260903225903 30 245 0.0 0.0 0.00 0.00 0.00 67 1014.6
20260903225403 30 245 0.0 0.0 0.00 0.00 0.00 68 1014.6
20260903224905 30 245 0.0 0.0 0.00 0.00 0.00 68 1014.6
20260903224403 30 245 0.0 0.0 0.00 0.00 0.00 69 1014.7